COSMOS 2598 (RODNIK-S *)

Last updated on Wed Dec 31 2025 00:02:07 GMT+0000 (Coordinated Universal Time)

1 66648U 25273B 25364.57279708 -.00000007 00000+0 -11871-3 0 9993 2 66648 82.5030 275.3562 0008363 194.5629 165.5211 12.43233692 4354
UTC large
Height (km)
Speed (km/s)
/
Latitude / Longitude
Inclination (degrees)
Orbital Period (minutes)
Azimuth
Elevation
Range (km)
Doppler Factor

Next 0 passes for location: London (51.5072 / 0.1276)

Sorry there are no passes over London.